Kenner, LA

5:40 AM CDT on August 30, 2016 (GMT -0500)
New Orleans International

Weather History for KMSY - February, 2013

Change the Weather History Date:

Friday, February 8, 2013

  Actual Average Record
Temperature  
Mean Temperature 62 °F -  
Max Temperature 69 °F 60 °F 81 °F (1999)
Min Temperature 54 °F 40 °F 30 °F (1964)
Degree Days  
Heating Degree Days 4    
Growing Degree Days 12 (Base 50)    
Moisture  
Dew Point 56 °F    
Average Humidity 86    
Maximum Humidity 100    
Minimum Humidity 65    
Precipitation  
Precipitation 0.00 in - - ()
Sea Level Pressure  
Sea Level Pressure 30.08 in    
Wind  
Wind Speed 4 mph (NNW)    
Max Wind Speed 14 mph    
Max Gust Speed -    
Visibility 6 miles    
Events Fog    
Averages and records for this station are not official NWS values.
T = Trace of Precipitation, MM = Missing Value Source: NWS Daily Summary

Daily Weather History Graph

Daily Weather History Graph

Search for Another Location

Airport or City:

Trip Planner

Search our weather history database for the weather conditions in past years. The results will help you decide how hot, cold, wet, or windy it might be!

Date:

Astronomy

Feb. 08, 2013 Rise Set
Actual Time 6:46 AM CST 5:44 PM CST
Civil Twilight 6:21 AM CST 6:09 PM CST
Nautical Twilight 5:53 AM CST 6:37 PM CST
Astronomical Twilight 5:25 AM CST 7:05 PM CST
Moon 5:11 AM CST (2/8) 4:19 PM CST (2/8)
Length of Visible Light 11h 47m
Length of Day
10h 58m
Waning Crescent, 3% of the Moon is Illuminated
Feb 8
Waning Crescent
Feb 10
New
Feb 17
First Quarter
Feb 25
Full
Mar 4
Last Quarter

Hourly Weather History & Observations

Time (CST) Temp. Dew Point Humidity Pressure Visibility Wind Dir Wind Speed Gust Speed Precip Events Conditions
12:53 AM 57.0 °F 54.0 °F 89% 29.98 in 4.0 mi Calm Calm - N/A   Clear
1:53 AM 55.9 °F 54.0 °F 93% 29.99 in 3.0 mi Calm Calm - N/A   Clear
2:49 AM 55.4 °F 53.6 °F 94% 29.98 in 3.0 mi Calm Calm - N/A   Partly Cloudy
2:53 AM 54.0 °F 53.1 °F 97% 29.99 in 3.0 mi Calm Calm - N/A   Partly Cloudy
3:53 AM 55.9 °F 55.0 °F 97% 30.01 in 4.0 mi NW 4.6 mph - N/A   Scattered Clouds
4:15 AM 55.4 °F 55.4 °F 100% 30.00 in 4.0 mi NW 4.6 mph - N/A   Mostly Cloudy
4:50 AM 57.2 °F 55.4 °F 94% 30.00 in 3.0 mi Calm Calm - N/A   Mostly Cloudy
4:53 AM 57.0 °F 55.9 °F 96% 30.01 in 4.0 mi Calm Calm - N/A   Mostly Cloudy
5:53 AM 57.9 °F 55.9 °F 93% 30.02 in 5.0 mi Calm Calm - N/A   Scattered Clouds
6:53 AM 55.9 °F 54.0 °F 93% 30.04 in 4.0 mi Calm Calm - N/A Fog Shallow Fog
7:53 AM 60.1 °F 57.9 °F 93% 30.06 in 3.0 mi Calm Calm - N/A Fog Shallow Fog
8:53 AM 63.0 °F 59.0 °F 87% 30.09 in 5.0 mi West 5.8 mph - N/A   Overcast
9:12 AM 62.6 °F 60.8 °F 94% 30.09 in 4.0 mi WNW 3.5 mph - N/A   Overcast
9:53 AM 63.0 °F 60.1 °F 90% 30.11 in 4.0 mi West 3.5 mph - N/A   Overcast
10:08 AM 62.6 °F 60.8 °F 94% 30.10 in 5.0 mi West 4.6 mph - N/A   Overcast
10:53 AM 64.0 °F 60.1 °F 87% 30.12 in 7.0 mi WNW 10.4 mph - N/A   Overcast
11:46 AM 62.6 °F 59.0 °F 88% 30.11 in 4.0 mi West 9.2 mph - N/A   Overcast
11:53 AM 64.0 °F 60.1 °F 87% 30.11 in 4.0 mi NW 8.1 mph - N/A   Overcast
12:53 PM 63.0 °F 57.9 °F 84% 30.10 in 5.0 mi NNW 10.4 mph - N/A   Overcast
1:41 PM 62.6 °F 59.0 °F 88% 30.08 in 6.0 mi NW 9.2 mph - N/A   Mostly Cloudy
1:53 PM 66.0 °F 59.0 °F 78% 30.09 in 7.0 mi NW 8.1 mph - N/A   Mostly Cloudy
2:12 PM 68.0 °F 60.8 °F 78% 30.07 in 8.0 mi NNW 6.9 mph - N/A   Mostly Cloudy
2:53 PM 68.0 °F 59.0 °F 73% 30.08 in 9.0 mi North 5.8 mph - N/A   Mostly Cloudy
3:53 PM 69.1 °F 59.0 °F 70% 30.08 in 10.0 mi North 6.9 mph - N/A   Partly Cloudy
4:53 PM 68.0 °F 57.0 °F 68% 30.08 in 10.0 mi North 4.6 mph - N/A   Partly Cloudy
5:53 PM 64.9 °F 55.9 °F 73% 30.09 in 10.0 mi North 3.5 mph - N/A   Scattered Clouds
6:53 PM 63.0 °F 55.9 °F 78% 30.11 in 10.0 mi North 12.7 mph - N/A   Mostly Cloudy
7:53 PM 60.1 °F 54.0 °F 80% 30.14 in 10.0 mi North 12.7 mph - N/A   Partly Cloudy
8:53 PM 57.9 °F 52.0 °F 81% 30.16 in 10.0 mi North 13.8 mph - N/A   Partly Cloudy
9:53 PM 57.0 °F 51.1 °F 81% 30.17 in 10.0 mi NNE 13.8 mph - N/A   Scattered Clouds
10:53 PM 55.9 °F 51.1 °F 84% 30.16 in 10.0 mi NNE 13.8 mph - N/A   Partly Cloudy
11:53 PM 55.9 °F 51.1 °F 84% 30.17 in 10.0 mi NE 13.8 mph - N/A   Partly Cloudy